Location: Unspecified
(0.0000°N, 0.0000°E)
Time: 07:39:19
(UTC+00:00)

DMSP 5D-3 F18 (USA 210) - Visible Passes

Search period start: 19 February 2019 00:00
Search period end: 01 March 2019 00:00
Orbit: 841 x 856 km, 98.6° (Epoch: 18 February)

Date Brightness Start Highest point End Pass type
(mag) Time Alt. Az. Time Alt. Az. Time Alt. Az.
19 Feb 4.9 05:23:49 10° NNE 05:29:20 81° ESE 05:34:51 10° S visible
20 Feb 5.4 05:11:30 10° NNE 05:16:54 58° ESE 05:22:18 10° S visible
21 Feb 6.1 04:59:18 10° NNE 05:04:29 41° ESE 05:09:38 10° S visible
22 Feb 6.7 04:47:18 10° NE 04:52:03 30° ESE 04:56:47 10° SSE visible
23 Feb 7.2 04:35:30 10° NE 04:39:37 22° ESE 04:43:43 10° SSE visible
24 Feb 7.7 04:24:04 10° ENE 04:27:12 15° ESE 04:30:18 10° SE visible
24 Feb 8.4 18:50:38 10° WSW 18:51:31 10° WSW 18:52:24 10° W visible
25 Feb 8.0 04:13:49 10° E 04:14:47 10° ESE 04:15:45 10° ESE visible
25 Feb 8.0 18:36:02 10° SW 18:39:06 15° WSW 18:42:11 10° WNW visible
26 Feb 4.7 05:37:13 10° N 05:42:42 71° WNW 05:48:11 10° SSW visible
27 Feb 4.8 05:24:46 10° NNE 05:30:16 84° ESE 05:35:47 10° S visible
28 Feb 5.3 05:12:25 10° NNE 05:17:50 61° ESE 05:23:15 10° S visible
